| time (UTC) | temp F | wind direction | speed knots | gust knots | rain 1hr in | rain 24hr in | rain mn in | humidity % | barometer mb |
| 20260903232556 | 81 | 87 | 1.7 | 3.5 | 0.00 | 0.00 | 0.00 | 23 | 1023.5 |
| 20260903231516 | 81 | 75 | 1.7 | 3.5 | 0.00 | 0.00 | 0.00 | 24 | 1023.4 |
| 20260903230516 | 81 | 77 | 1.7 | 2.6 | 0.00 | 0.00 | 0.00 | 25 | 1023.3 |
| 20260903225516 | 82 | 72 | 1.7 | 3.5 | 0.00 | 0.00 | 0.00 | 25 | 1023.5 |
| 20260903224516 | 82 | 61 | 0.9 | 2.6 | 0.00 | 0.00 | 0.00 | 25 | 1023.2 |
| 20260903223516 | 83 | 61 | 1.7 | 2.6 | 0.00 | 0.00 | 0.00 | 24 | 1023.2 |
| 20260903222516 | 83 | 61 | 0.9 | 2.6 | 0.00 | 0.00 | 0.00 | 24 | 1023.2 |
| 20260903221516 | 83 | 48 | 2.6 | 4.3 | 0.00 | 0.00 | 0.00 | 24 | 1022.9 |
| 20260903220516 | 84 | 43 | 2.6 | 3.5 | 0.00 | 0.00 | 0.00 | 24 | 1023.0 |
| 20260903215556 | 84 | 55 | 1.7 | 3.5 | 0.00 | 0.00 | 0.00 | 24 | 1023.0 |
| 20260903214556 | 85 | 63 | 2.6 | 3.5 | 0.00 | 0.00 | 0.00 | 23 | 1022.8 |
| 20260903213516 | 85 | 65 | 1.7 | 3.5 | 0.00 | 0.00 | 0.00 | 23 | 1022.7 |
| 20260903212516 | 85 | 65 | 1.7 | 3.5 | 0.00 | 0.00 | 0.00 | 23 | 1022.8 |
| 20260903211516 | 86 | 65 | 1.7 | 2.6 | 0.00 | 0.00 | 0.00 | 23 | 1022.6 |
| 20260903210516 | 86 | 65 | 1.7 | 3.5 | 0.00 | 0.00 | 0.00 | 22 | 1022.7 |
| 20260903205616 | 87 | 65 | 1.7 | 2.6 | 0.00 | 0.00 | 0.00 | 22 | 1022.7 |
| 20260903204516 | 87 | 260 | 0.9 | 1.7 | 0.00 | 0.00 | 0.00 | 22 | 1022.3 |
| 20260903203516 | 85 | 260 | 0.9 | 1.7 | 0.00 | 0.00 | 0.00 | 24 | 1022.1 |
| 20260903202516 | 85 | 0.0 | 0.0 | 0.00 | 0.00 | 0.00 | 26 | 1022.1 | |
| 20260903201516 | 85 | 0.0 | 0.0 | 0.00 | 0.00 | 0.00 | 25 | 1021.8 | |
| 20260903200516 | 86 | 0.0 | 0.0 | 0.00 | 0.00 | 0.00 | 27 | 1021.9 | |
| 20260903195556 | 86 | 0.0 | 0.0 | 0.00 | 0.00 | 0.00 | 24 | 1021.6 | |
| 20260903194556 | 88 | 0.0 | 0.0 | 0.00 | 0.00 | 0.00 | 24 | 1021.5 | |
| 20260903193516 | 88 | 0.0 | 0.0 | 0.00 | 0.00 | 0.00 | 23 | 1021.4 | |
| 20260903192516 | 89 | 0.0 | 0.0 | 0.00 | 0.00 | 0.00 | 23 | 1021.4 | |
| 20260903191516 | 90 | 0.0 | 0.0 | 0.00 | 0.00 | 0.00 | 22 | 1021.4 | |
| 20260903190556 | 92 | 260 | 0.0 | 0.9 | 0.00 | 0.00 | 0.00 | 21 | 1021.3 |
| 20260903185516 | 93 | 260 | 0.0 | 0.9 | 0.00 | 0.00 | 0.00 | 20 | 1021.4 |
| 20260903184556 | 94 | 260 | 0.9 | 1.7 | 0.00 | 0.00 | 0.00 | 18 | 1021.3 |
| 20260903183516 | 95 | 260 | 0.9 | 1.7 | 0.00 | 0.00 | 0.00 | 17 | 1021.4 |
| 20260903182516 | 97 | 260 | 0.9 | 1.7 | 0.00 | 0.00 | 0.00 | 17 | 1021.5 |
| 20260903181556 | 98 | 260 | 0.9 | 2.6 | 0.00 | 0.00 | 0.00 | 16 | 1021.6 |
| 20260903180516 | 98 | 266 | 0.9 | 3.5 | 0.00 | 0.00 | 0.00 | 15 | 1021.5 |
| 20260903175516 | 99 | 265 | 1.7 | 6.1 | 0.00 | 0.00 | 0.00 | 15 | 1021.7 |
| 20260903174516 | 99 | 270 | 1.7 | 4.3 | 0.00 | 0.00 | 0.00 | 14 | 1021.6 |
| 20260903173516 | 99 | 252 | 1.7 | 3.5 | 0.00 | 0.00 | 0.00 | 14 | 1021.6 |
| 20260903172516 | 100 | 241 | 1.7 | 4.3 | 0.00 | 0.00 | 0.00 | 14 | 1021.6 |
| 20260903171516 | 99 | 271 | 2.6 | 6.1 | 0.00 | 0.00 | 0.00 | 14 | 1021.7 |
| 20260903170516 | 100 | 250 | 1.7 | 4.3 | 0.00 | 0.00 | 0.00 | 14 | 1021.8 |
| 20260903165516 | 100 | 279 | 3.5 | 7.0 | 0.00 | 0.00 | 0.00 | 14 | 1021.8 |
| 20260903164516 | 100 | 266 | 2.6 | 7.8 | 0.00 | 0.00 | 0.00 | 14 | 1021.7 |
| 20260903163557 | 100 | 228 | 2.6 | 7.8 | 0.00 | 0.00 | 0.00 | 14 | 1021.8 |
| 20260903162516 | 100 | 262 | 3.5 | 7.8 | 0.00 | 0.00 | 0.00 | 14 | 1021.9 |
| 20260903161516 | 100 | 232 | 2.6 | 7.0 | 0.00 | 0.00 | 0.00 | 14 | 1021.9 |
| 20260903160516 | 100 | 248 | 2.6 | 6.1 | 0.00 | 0.00 | 0.00 | 15 | 1022.0 |
| 20260903155516 | 100 | 266 | 4.3 | 10.4 | 0.00 | 0.00 | 0.00 | 15 | 1022.0 |
| 20260903154516 | 100 | 261 | 2.6 | 7.8 | 0.00 | 0.00 | 0.00 | 16 | 1022.1 |
| 20260903153636 | 100 | 265 | 2.6 | 7.8 | 0.00 | 0.00 | 0.00 | 15 | 1022.1 |
| 20260903152516 | 100 | 286 | 3.5 | 7.0 | 0.00 | 0.00 | 0.00 | 14 | 1022.2 |
| 20260903151516 | 100 | 263 | 2.6 | 7.0 | 0.00 | 0.00 | 0.00 | 15 | 1022.3 |
| 20260903150516 | 100 | 167 | 0.9 | 6.1 | 0.00 | 0.00 | 0.00 | 14 | 1022.3 |
| 20260903145516 | 98 | 280 | 2.6 | 7.8 | 0.00 | 0.00 | 0.00 | 14 | 1022.5 |
| 20260903144516 | 99 | 303 | 4.3 | 8.7 | 0.00 | 0.00 | 0.00 | 13 | 1022.7 |
| 20260903143516 | 99 | 257 | 2.6 | 5.2 | 0.00 | 0.00 | 0.00 | 11 | 1022.7 |
| 20260903142516 | 98 | 296 | 4.3 | 8.7 | 0.00 | 0.00 | 0.00 | 11 | 1022.6 |
| 20260903141516 | 98 | 258 | 2.6 | 6.1 | 0.00 | 0.00 | 0.00 | 14 | 1022.8 |
| 20260903140517 | 98 | 269 | 3.5 | 8.7 | 0.00 | 0.00 | 0.00 | 15 | 1022.9 |
| 20260903135556 | 98 | 214 | 1.7 | 6.1 | 0.00 | 0.00 | 0.00 | 16 | 1023.0 |
| 20260903134516 | 97 | 299 | 3.5 | 8.7 | 0.00 | 0.00 | 0.00 | 15 | 1023.2 |
| 20260903133516 | 97 | 355 | 3.5 | 9.6 | 0.00 | 0.00 | 0.00 | 15 | 1023.3 |
| 20260903132556 | 98 | 274 | 5.2 | 8.7 | 0.00 | 0.00 | 0.00 | 17 | 1023.5 |
| 20260903131516 | 97 | 285 | 1.7 | 7.0 | 0.00 | 0.00 | 0.00 | 18 | 1023.6 |
| 20260903130556 | 97 | 279 | 3.5 | 7.0 | 0.00 | 0.00 | 0.00 | 17 | 1023.6 |
| 20260903125516 | 96 | 260 | 4.3 | 9.6 | 0.00 | 0.00 | 0.00 | 18 | 1023.6 |
| 20260903124516 | 96 | 278 | 2.6 | 8.7 | 0.00 | 0.00 | 0.00 | 19 | 1023.7 |
| 20260903123516 | 95 | 15 | 2.6 | 7.8 | 0.00 | 0.00 | 0.00 | 20 | 1023.7 |
| 20260903122516 | 96 | 271 | 4.3 | 7.8 | 0.00 | 0.00 | 0.00 | 20 | 1023.8 |
| 20260903121517 | 94 | 250 | 2.6 | 7.8 | 0.00 | 0.00 | 0.00 | 23 | 1024.0 |
| 20260903120556 | 94 | 349 | 3.5 | 9.6 | 0.00 | 0.00 | 0.00 | 23 | 1024.0 |
| 20260903115516 | 94 | 217 | 2.6 | 7.0 | 0.00 | 0.00 | 0.00 | 28 | 1024.2 |
| 20260903114516 | 93 | 271 | 1.7 | 4.3 | 0.00 | 0.00 | 0.00 | 29 | 1024.1 |
| 20260903113516 | 93 | 129 | 1.7 | 6.1 | 0.00 | 0.00 | 0.00 | 30 | 1024.2 |
| 20260903112516 | 92 | 241 | 1.7 | 3.5 | 0.00 | 0.00 | 0.00 | 31 | 1024.3 |
| 20260903111556 | 90 | 253 | 0.9 | 3.5 | 0.00 | 0.00 | 0.00 | 33 | 1024.5 |
| 20260903110517 | 89 | 232 | 1.7 | 4.3 | 0.00 | 0.00 | 0.00 | 33 | 1024.4 |
| 20260903105516 | 88 | 227 | 1.7 | 4.3 | 0.00 | 0.00 | 0.00 | 36 | 1024.6 |
| 20260903104517 | 88 | 255 | 1.7 | 3.5 | 0.00 | 0.00 | 0.00 | 37 | 1024.6 |
| 20260903103516 | 88 | 254 | 1.7 | 2.6 | 0.00 | 0.00 | 0.00 | 37 | 1024.7 |
| 20260903102557 | 87 | 249 | 1.7 | 4.3 | 0.00 | 0.00 | 0.00 | 39 | 1024.7 |
| 20260903101516 | 87 | 257 | 0.9 | 2.6 | 0.00 | 0.00 | 0.00 | 43 | 1024.8 |
| 20260903100517 | 85 | 262 | 0.9 | 2.6 | 0.00 | 0.00 | 0.00 | 46 | 1024.7 |
| 20260903095556 | 85 | 243 | 0.9 | 2.6 | 0.00 | 0.00 | 0.00 | 47 | 1024.8 |
| 20260903094517 | 84 | 272 | 0.9 | 2.6 | 0.00 | 0.00 | 0.00 | 49 | 1024.7 |
| 20260903093516 | 83 | 258 | 1.7 | 3.5 | 0.00 | 0.00 | 0.00 | 50 | 1024.7 |
| 20260903092516 | 82 | 34 | 0.9 | 2.6 | 0.00 | 0.00 | 0.00 | 48 | 1024.7 |
| 20260903091516 | 82 | 39 | 0.9 | 3.5 | 0.00 | 0.00 | 0.00 | 48 | 1024.8 |
| 20260903090516 | 81 | 62 | 0.0 | 1.7 | 0.00 | 0.00 | 0.00 | 47 | 1024.7 |
| 20260903085516 | 80 | 58 | 0.9 | 2.6 | 0.00 | 0.00 | 0.00 | 47 | 1024.6 |
| 20260903084516 | 79 | 47 | 0.9 | 1.7 | 0.00 | 0.00 | 0.00 | 47 | 1024.6 |
| 20260903083516 | 78 | 47 | 0.9 | 3.5 | 0.00 | 0.00 | 0.00 | 48 | 1024.5 |
| 20260903082516 | 76 | 47 | 1.7 | 3.5 | 0.00 | 0.00 | 0.00 | 49 | 1024.3 |
| 20260903081516 | 75 | 38 | 1.7 | 3.5 | 0.00 | 0.00 | 0.00 | 50 | 1024.3 |
| 20260903080517 | 74 | 49 | 2.6 | 4.3 | 0.00 | 0.00 | 0.00 | 50 | 1024.4 |
| 20260903075516 | 73 | 40 | 2.6 | 6.1 | 0.00 | 0.00 | 0.00 | 52 | 1024.1 |
| 20260903074517 | 72 | 48 | 3.5 | 7.8 | 0.00 | 0.00 | 0.00 | 53 | 1024.2 |
| 20260903073516 | 72 | 47 | 5.2 | 8.7 | 0.00 | 0.00 | 0.00 | 54 | 1024.2 |
| 20260903072517 | 71 | 48 | 4.3 | 7.8 | 0.00 | 0.00 | 0.00 | 54 | 1024.2 |
| 20260903071556 | 71 | 49 | 4.3 | 7.8 | 0.00 | 0.00 | 0.00 | 55 | 1024.3 |
| 20260903070556 | 70 | 46 | 4.3 | 7.8 | 0.00 | 0.00 | 0.00 | 55 | 1024.1 |
| 20260903065516 | 70 | 46 | 4.3 | 7.8 | 0.00 | 0.00 | 0.00 | 55 | 1024.1 |
| 20260903064516 | 70 | 45 | 2.6 | 7.0 | 0.00 | 0.00 | 0.00 | 56 | 1024.2 |
| 20260903063517 | 69 | 46 | 3.5 | 7.0 | 0.00 | 0.00 | 0.00 | 56 | 1024.1 |
| 20260903062517 | 69 | 42 | 3.5 | 7.0 | 0.00 | 0.00 | 0.00 | 56 | 1023.9 |
| 20260903061516 | 69 | 46 | 3.5 | 7.8 | 0.00 | 0.00 | 0.00 | 56 | 1023.9 |
| 20260903060516 | 69 | 45 | 4.3 | 7.8 | 0.00 | 0.00 | 0.00 | 55 | 1023.7 |
| 20260903055516 | 69 | 45 | 3.5 | 7.8 | 0.00 | 0.00 | 0.00 | 55 | 1023.7 |
| 20260903054516 | 69 | 49 | 4.3 | 8.7 | 0.00 | 0.00 | 0.00 | 54 | 1023.6 |
| 20260903053516 | 69 | 48 | 4.3 | 7.0 | 0.00 | 0.00 | 0.00 | 53 | 1023.4 |
| 20260903052556 | 69 | 57 | 2.6 | 7.0 | 0.00 | 0.00 | 0.00 | 53 | 1023.4 |
| 20260903051517 | 69 | 50 | 4.3 | 7.8 | 0.00 | 0.00 | 0.00 | 52 | 1023.3 |
| 20260903050516 | 69 | 48 | 4.3 | 7.0 | 0.00 | 0.00 | 0.00 | 51 | 1023.1 |
| 20260903045517 | 70 | 48 | 3.5 | 6.1 | 0.00 | 0.00 | 0.00 | 50 | 1023.3 |
| 20260903044517 | 70 | 51 | 3.5 | 6.1 | 0.00 | 0.00 | 0.00 | 49 | 1023.4 |
| 20260903043517 | 71 | 47 | 2.6 | 7.8 | 0.00 | 0.00 | 0.00 | 49 | 1023.4 |
| 20260903042516 | 71 | 48 | 2.6 | 5.2 | 0.00 | 0.00 | 0.00 | 49 | 1023.3 |
| 20260903041516 | 71 | 46 | 2.6 | 6.1 | 0.00 | 0.00 | 0.00 | 48 | 1023.2 |
| 20260903040517 | 71 | 42 | 3.5 | 5.2 | 0.00 | 0.00 | 0.00 | 47 | 1023.2 |
| 20260903035516 | 71 | 50 | 1.7 | 3.5 | 0.00 | 0.00 | 0.00 | 46 | 1023.3 |
| 20260903034517 | 71 | 59 | 1.7 | 5.2 | 0.00 | 0.00 | 0.00 | 45 | 1023.1 |
| 20260903033516 | 72 | 56 | 2.6 | 5.2 | 0.00 | 0.00 | 0.00 | 45 | 1023.1 |
| 20260903032516 | 72 | 46 | 4.3 | 7.0 | 0.00 | 0.00 | 0.00 | 44 | 1023.0 |
| 20260903031517 | 72 | 42 | 3.5 | 6.1 | 0.00 | 0.00 | 0.00 | 43 | 1023.1 |
| 20260903030517 | 73 | 46 | 4.3 | 7.0 | 0.00 | 0.00 | 0.00 | 42 | 1023.1 |
| 20260903025516 | 72 | 45 | 5.2 | 7.8 | 0.00 | 0.00 | 0.00 | 43 | 1023.0 |
| 20260903024517 | 72 | 43 | 4.3 | 7.8 | 0.00 | 0.00 | 0.00 | 42 | 1023.1 |
| 20260903023516 | 72 | 50 | 2.6 | 6.1 | 0.00 | 0.00 | 0.00 | 42 | 1023.1 |
| 20260903022516 | 72 | 44 | 3.5 | 6.1 | 0.00 | 0.00 | 0.00 | 42 | 1023.0 |
| 20260903021516 | 73 | 66 | 1.7 | 5.2 | 0.00 | 0.00 | 0.00 | 41 | 1023.0 |
| 20260903020516 | 74 | 68 | 4.3 | 9.6 | 0.00 | 0.00 | 0.00 | 40 | 1023.1 |
| 20260903015517 | 74 | 60 | 4.3 | 7.0 | 0.00 | 0.00 | 0.00 | 39 | 1023.0 |
| 20260903014517 | 75 | 54 | 3.5 | 7.8 | 0.00 | 0.00 | 0.00 | 38 | 1023.0 |
| 20260903013516 | 75 | 53 | 4.3 | 9.6 | 0.00 | 0.00 | 0.00 | 37 | 1023.0 |
| 20260903012516 | 76 | 49 | 5.2 | 10.4 | 0.00 | 0.00 | 0.00 | 37 | 1023.0 |
| 20260903011557 | 76 | 48 | 6.1 | 13.0 | 0.00 | 0.00 | 0.00 | 36 | 1022.9 |
| 20260903010517 | 76 | 48 | 7.0 | 11.3 | 0.00 | 0.00 | 0.00 | 36 | 1022.9 |
| 20260903005516 | 76 | 49 | 7.0 | 12.2 | 0.00 | 0.00 | 0.00 | 36 | 1022.7 |
| 20260903004517 | 76 | 47 | 5.2 | 8.7 | 0.00 | 0.00 | 0.00 | 37 | 1022.5 |
| 20260903003557 | 76 | 48 | 5.2 | 7.8 | 0.00 | 0.00 | 0.00 | 38 | 1022.5 |
| 20260903002517 | 76 | 47 | 4.3 | 7.0 | 0.00 | 0.00 | 0.00 | 39 | 1022.5 |
| 20260903001517 | 76 | 47 | 2.6 | 6.1 | 0.00 | 0.00 | 0.00 | 40 | 1022.5 |
| 20260903000517 | 76 | 44 | 2.6 | 4.3 | 0.00 | 0.00 | 0.00 | 39 | 1022.5 |
| 20260902235516 | 77 | 44 | 2.6 | 4.3 | 0.00 | 0.00 | 0.00 | 39 | 1022.4 |
| 20260902234516 | 77 | 46 | 2.6 | 5.2 | 0.00 | 0.00 | 0.00 | 38 | 1022.4 |
| 20260902233516 | 77 | 45 | 2.6 | 4.3 | 0.00 | 0.00 | 0.00 | 38 | 1022.3 |